SQUAM R @ ASHLAND: From 01/10/2019 00:00 to 01/26/2019 00:00

Date STAGE [FT] FLOW [CFS] PRECIPITATION INCREMENT [IN] AIR TEMPERATURE [DEGF] PRECIPITATION TOTAL [IN]
01/24/2019 03:00 10.62 110.7 0.00 33.2 --
01/24/2019 02:00 10.62 110.7 0.00 32.6 --
01/24/2019 01:00 10.62 110.7 0.00 31.4 --
01/24/2019 00:00 10.62 110.7 0.00 30.5 --
01/23/2019 23:00 10.62 110.7 0.00 29.0 --
01/23/2019 22:00 10.62 110.7 0.00 27.7 --
01/23/2019 21:00 10.62 110.7 0.00 26.7 --
01/23/2019 20:00 10.62 110.7 0.00 26.2 --
01/23/2019 19:00 10.62 110.7 0.00 26.4 --
01/23/2019 18:00 10.62 110.7 0.00 26.5 --
01/23/2019 17:00 10.62 110.7 0.00 28.1 --
01/23/2019 16:00 10.62 110.7 0.00 29.0 --
01/23/2019 15:00 10.62 110.7 0.00 28.8 --
01/23/2019 14:00 10.62 110.7 0.00 28.1 --
01/23/2019 13:00 10.62 110.7 0.00 26.5 --
01/23/2019 12:00 10.62 110.7 0.00 24.9 --
01/23/2019 11:00 10.62 110.7 0.00 22.9 --
01/23/2019 10:00 10.62 110.7 0.00 19.0 --
01/23/2019 09:00 10.62 110.7 0.00 16.3 --
01/23/2019 08:00 10.61 108.8 0.00 14.0 --
01/23/2019 07:00 10.62 110.7 0.00 13.6 --
01/23/2019 06:00 10.62 110.7 0.00 12.5 --
01/23/2019 05:00 10.62 110.7 0.00 11.8 --
01/23/2019 04:00 10.62 110.7 0.00 10.6 --
01/23/2019 03:00 10.62 110.7 0.00 9.5 --
01/23/2019 02:00 10.62 110.7 0.00 10.8 --
01/23/2019 01:00 10.62 110.7 0.00 11.8 --
01/23/2019 00:00 10.62 110.7 0.00 12.8 0.00
01/22/2019 23:00 10.62 110.7 0.00 12.8 --
01/22/2019 22:00 10.62 110.7 0.00 12.7 --
01/22/2019 21:00 10.62 110.7 0.00 12.1 --
01/22/2019 20:00 10.62 110.7 0.00 12.5 --
01/22/2019 19:00 10.62 110.7 0.00 12.3 --
01/22/2019 18:00 10.62 110.7 0.00 14.5 --
01/22/2019 17:00 10.62 110.7 0.00 14.7 --
01/22/2019 16:00 10.62 110.7 0.00 16.0 --
01/22/2019 15:00 10.62 110.7 0.00 17.3 --
01/22/2019 14:00 10.62 110.7 0.00 17.1 --
01/22/2019 13:00 10.61 108.8 0.00 16.2 --
01/22/2019 12:00 10.61 108.8 0.00 14.5 --
01/22/2019 11:00 10.62 110.7 0.00 13.0 --
01/22/2019 10:00 10.61 108.8 0.00 9.9 --
01/22/2019 09:00 10.61 108.8 0.00 5.0 --
01/22/2019 08:00 10.60 107.0 0.00 1.6 --
01/22/2019 07:00 10.61 108.8 0.00 -1.1 --
01/22/2019 06:00 10.61 108.8 0.00 1.3 --
01/22/2019 05:00 10.61 108.8 0.00 0.9 --
01/22/2019 04:00 10.61 108.8 0.00 1.9 --
01/22/2019 03:00 10.61 108.8 0.00 1.8 --
01/22/2019 02:00 10.61 108.8 0.00 2.4 --
01/22/2019 01:00 10.61 108.8 0.00 1.9 --
01/22/2019 00:00 10.61 108.8 0.00 6.7 0.00
01/21/2019 23:00 10.62 110.7 0.00 3.1 --
01/21/2019 22:00 10.62 110.7 0.00 2.9 --
01/21/2019 21:00 10.62 110.7 0.00 2.4 --
01/21/2019 20:00 10.62 110.7 0.00 0.6 --
01/21/2019 19:00 10.62 110.7 0.00 0.8 --
01/21/2019 18:00 10.62 110.7 0.00 -0.1 --
01/21/2019 17:00 10.62 110.7 0.00 -1.1 --
01/21/2019 16:00 10.61 108.8 0.00 -0.8 --
01/21/2019 15:00 10.62 110.7 0.00 0.3 --
01/21/2019 14:00 10.62 110.7 0.00 0.4 --
01/21/2019 13:00 10.62 110.7 0.00 -0.2 --
01/21/2019 12:00 10.62 110.7 0.00 0.6 --
01/21/2019 11:00 10.62 110.7 0.00 -0.3 --
01/21/2019 10:00 10.62 110.7 0.00 -1.4 --
01/21/2019 09:00 10.62 110.7 0.00 -2.0 --
01/21/2019 08:00 10.62 110.7 0.00 -2.5 --
01/21/2019 07:00 10.62 110.7 0.00 -2.7 --
01/21/2019 06:00 10.62 110.7 0.00 -1.6 --
01/21/2019 05:00 10.62 110.7 0.00 -1.2 --
01/21/2019 04:00 10.62 110.7 0.00 -2.3 --
01/21/2019 03:00 10.62 110.7 0.00 -2.0 --
01/21/2019 02:00 10.62 110.7 0.00 -1.8 --
01/21/2019 01:00 10.62 110.7 0.00 -1.4 --
01/21/2019 00:00 10.62 110.7 0.00 -1.2 0.00
01/20/2019 23:00 10.62 110.7 0.00 0.1 --
01/20/2019 22:00 10.62 110.7 0.00 1.9 --
01/20/2019 21:00 10.63 112.6 0.00 4.2 --
01/20/2019 20:00 10.62 110.7 0.00 7.6 --
01/20/2019 19:00 10.62 110.7 0.00 10.3 --
01/20/2019 18:00 10.62 110.7 0.00 15.4 --
01/20/2019 17:00 10.62 110.7 0.00 19.1 --
01/20/2019 16:00 10.62 110.7 0.00 19.3 --
01/20/2019 15:00 10.62 110.7 0.00 19.5 --
01/20/2019 14:00 10.62 110.7 0.00 17.4 --
01/20/2019 13:00 10.62 110.7 0.00 17.5 --
01/20/2019 12:00 10.62 110.7 0.00 18.6 --
01/20/2019 11:00 10.62 110.7 0.00 17.6 --
01/20/2019 10:00 10.62 110.7 0.00 16.8 --
01/20/2019 09:00 10.62 110.7 0.00 17.2 --
01/20/2019 08:00 10.62 110.7 0.00 16.9 --
01/20/2019 07:00 10.62 110.7 0.00 16.4 --
01/20/2019 06:00 10.62 110.7 0.00 12.6 --
01/20/2019 05:00 10.62 110.7 0.00 12.0 --
01/20/2019 04:00 10.62 110.7 0.00 11.1 --
01/20/2019 03:00 10.62 110.7 0.00 12.2 --
01/20/2019 02:00 10.62 110.7 0.00 12.9 --
01/20/2019 01:00 10.62 110.7 0.00 13.1 --
01/20/2019 00:00 10.62 110.7 0.00 12.9 0.00
01/19/2019 23:00 10.62 110.7 0.00 13.8 --
01/19/2019 22:00 10.62 110.7 0.00 14.5 --
01/19/2019 21:00 10.62 110.7 0.00 15.5 --
01/19/2019 20:00 10.62 110.7 0.00 16.4 --
01/19/2019 19:00 10.62 110.7 0.00 17.8 --
01/19/2019 18:00 10.62 110.7 0.00 17.2 --
01/19/2019 17:00 10.62 110.7 0.00 19.1 --
01/19/2019 16:00 10.62 110.7 0.00 19.9 --
01/19/2019 15:00 10.62 110.7 0.00 21.1 --
01/19/2019 14:00 10.62 110.7 0.00 21.6 --
01/19/2019 13:00 10.62 110.7 0.00 20.8 --
01/19/2019 12:00 10.62 110.7 0.00 21.6 --
01/19/2019 11:00 10.62 110.7 0.00 21.5 --
01/19/2019 10:00 10.62 110.7 0.00 19.4 --
01/19/2019 09:00 10.62 110.7 0.00 17.1 --
01/19/2019 08:00 10.62 110.7 0.00 16.1 --
01/19/2019 07:00 10.61 108.8 0.00 16.1 --
01/19/2019 06:00 10.62 110.7 0.00 12.7 --
01/19/2019 05:00 10.62 110.7 0.00 13.1 --
01/19/2019 04:00 10.62 110.7 0.00 14.6 --
01/19/2019 03:00 10.62 110.7 0.00 17.2 --
01/19/2019 02:00 10.62 110.7 0.00 20.1 --
01/19/2019 01:00 10.62 110.7 0.00 21.8 --
01/19/2019 00:00 10.62 110.7 0.00 21.4 0.00
01/18/2019 23:00 10.62 110.7 0.00 24.2 --
01/18/2019 22:00 10.62 110.7 0.00 22.7 --
01/18/2019 21:00 10.62 110.7 0.00 20.4 --
01/18/2019 20:00 10.62 110.7 0.00 21.0 --
01/18/2019 19:00 10.62 110.7 0.00 19.7 --
01/18/2019 18:00 10.62 110.7 0.00 21.0 --
01/18/2019 17:00 10.62 110.7 0.00 22.4 --
01/18/2019 16:00 10.62 110.7 0.00 23.1 --
01/18/2019 15:00 10.62 110.7 0.00 23.2 --
01/18/2019 14:00 10.62 110.7 0.00 22.3 --
01/18/2019 13:00 10.62 110.7 0.00 21.7 --
01/18/2019 12:00 10.62 110.7 0.00 20.5 --
01/18/2019 11:00 10.62 110.7 0.00 18.9 --
01/18/2019 10:00 10.62 110.7 0.00 17.7 --
01/18/2019 09:00 10.62 110.7 0.00 16.1 --
01/18/2019 08:00 10.62 110.7 0.00 14.7 --
01/18/2019 07:00 10.62 110.7 0.00 13.8 --
01/18/2019 06:00 10.62 110.7 0.00 13.4 --
01/18/2019 05:00 10.62 110.7 0.00 12.5 --
01/18/2019 04:00 10.62 110.7 0.00 12.6 --
01/18/2019 03:00 10.62 110.7 0.00 13.5 --
01/18/2019 02:00 10.62 110.7 0.00 13.6 --
01/18/2019 01:00 10.62 110.7 0.00 13.2 --
01/18/2019 00:00 10.62 110.7 0.00 13.0 0.00
01/17/2019 23:00 10.62 110.7 0.00 12.6 --
01/17/2019 22:00 10.62 110.7 0.00 12.4 --
01/17/2019 21:00 10.62 110.7 0.00 12.3 --
01/17/2019 20:00 10.62 110.7 0.00 12.9 --
01/17/2019 19:00 10.62 110.7 0.00 13.2 --
01/17/2019 18:00 10.62 110.7 0.00 13.6 --
01/17/2019 17:00 10.62 110.7 0.00 14.7 --
01/17/2019 16:00 10.62 110.7 0.00 17.5 --
01/17/2019 15:00 10.62 110.7 0.00 18.9 --
01/17/2019 14:00 10.62 110.7 0.00 18.0 --
01/17/2019 13:00 10.62 110.7 0.00 16.6 --
01/17/2019 12:00 10.62 110.7 0.00 15.5 --
01/17/2019 11:00 10.62 110.7 0.00 13.4 --
01/17/2019 10:00 10.62 110.7 0.00 10.6 --
01/17/2019 09:00 10.62 110.7 0.00 6.5 --
01/17/2019 08:00 10.62 110.7 0.00 -0.2 --
01/17/2019 07:00 10.62 110.7 0.00 0.4 --
01/17/2019 06:00 10.62 110.7 0.00 2.5 --
01/17/2019 05:00 10.62 110.7 0.00 5.2 --
01/17/2019 04:00 10.62 110.7 0.00 6.1 --
01/17/2019 03:00 10.62 110.7 0.00 6.7 --
01/17/2019 02:00 10.62 110.7 0.00 9.7 --
01/17/2019 01:00 10.62 110.7 0.00 11.4 --
01/17/2019 00:00 10.62 110.7 0.00 14.0 0.00
01/16/2019 23:00 10.62 110.7 0.00 16.6 --
01/16/2019 22:00 10.62 110.7 0.00 20.9 --
01/16/2019 21:00 10.62 110.7 0.00 24.7 --
01/16/2019 20:00 10.62 110.7 0.00 28.8 --
01/16/2019 19:00 10.62 110.7 0.00 30.7 --
01/16/2019 18:00 10.62 110.7 0.00 32.6 --
01/16/2019 17:00 10.62 110.7 0.00 33.6 --
01/16/2019 16:00 10.62 110.7 0.00 34.2 --
01/16/2019 15:00 10.62 110.7 0.00 34.9 --
01/16/2019 14:00 10.62 110.7 0.00 36.3 --
01/16/2019 13:00 10.62 110.7 0.00 34.6 --
01/16/2019 12:00 10.62 110.7 0.00 33.3 --
01/16/2019 11:00 10.62 110.7 0.00 29.2 --
01/16/2019 10:00 10.62 110.7 0.00 27.0 --
01/16/2019 09:00 10.62 110.7 0.00 24.9 --
01/16/2019 08:00 10.62 110.7 0.00 23.6 --
01/16/2019 07:00 10.62 110.7 0.00 22.8 --
01/16/2019 06:00 10.62 110.7 0.00 22.6 --
01/16/2019 05:00 10.62 110.7 0.00 21.8 --
01/16/2019 04:00 10.62 110.7 0.00 22.4 --
01/16/2019 03:00 10.62 110.7 0.00 23.0 --
01/16/2019 02:00 10.62 110.7 0.00 23.4 --
01/16/2019 01:00 10.62 110.7 0.00 23.4 --
01/16/2019 00:00 10.62 110.7 0.00 24.1 0.00
01/15/2019 23:00 10.62 110.7 0.00 24.2 --
01/15/2019 22:00 10.62 110.7 0.00 24.0 --
01/15/2019 21:00 10.62 110.7 0.00 23.7 --
01/15/2019 20:00 10.62 110.7 0.00 23.6 --
01/15/2019 19:00 10.62 110.7 0.00 23.0 --
01/15/2019 18:00 10.62 110.7 0.00 22.7 --
01/15/2019 17:00 10.62 110.7 0.00 24.6 --
01/15/2019 16:00 10.62 110.7 0.00 28.0 --
01/15/2019 15:00 10.62 110.7 0.00 29.6 --
01/15/2019 14:00 10.62 110.7 0.00 29.2 --
01/15/2019 13:00 10.62 110.7 0.00 28.6 --
01/15/2019 12:00 10.63 112.6 0.00 28.2 --
01/15/2019 11:00 10.62 110.7 0.00 28.0 --
01/15/2019 10:00 10.62 110.7 0.00 27.9 --
01/15/2019 09:00 10.62 110.7 0.00 24.3 --
01/15/2019 08:00 10.62 110.7 0.00 21.4 --
01/15/2019 07:00 10.62 110.7 0.00 16.9 --
01/15/2019 06:00 10.62 110.7 0.00 17.7 --
01/15/2019 05:00 10.62 110.7 0.00 18.4 --
01/15/2019 04:00 10.62 110.7 0.00 19.5 --
01/15/2019 03:00 10.62 110.7 0.00 19.3 --
01/15/2019 02:00 10.62 110.7 0.00 16.0 --
01/15/2019 01:00 10.62 110.7 0.00 11.6 --
01/15/2019 00:00 10.62 110.7 0.00 17.9 0.00
01/14/2019 23:00 10.62 110.7 0.00 12.8 --
01/14/2019 22:00 10.62 110.7 0.00 14.7 --
01/14/2019 21:00 10.62 110.7 0.00 17.7 --
01/14/2019 20:00 10.62 110.7 0.00 19.5 --
01/14/2019 19:00 10.62 110.7 0.00 20.6 --
01/14/2019 18:00 10.62 110.7 0.00 19.7 --
01/14/2019 17:00 10.62 110.7 0.00 22.5 --
01/14/2019 16:00 10.62 110.7 0.00 25.9 --
01/14/2019 15:00 10.62 110.7 0.00 26.7 --
01/14/2019 14:00 10.62 110.7 0.00 24.8 --
01/14/2019 13:00 10.62 110.7 0.00 22.8 --
01/14/2019 12:00 10.62 110.7 0.00 19.9 --
01/14/2019 11:00 10.62 110.7 0.00 13.3 --
01/14/2019 10:00 10.62 110.7 0.00 8.9 --
01/14/2019 09:00 10.62 110.7 0.00 2.3 --
01/14/2019 08:00 10.62 110.7 0.00 -3.0 --
01/14/2019 07:00 10.62 110.7 0.00 47.2 --
01/14/2019 06:00 10.62 110.7 0.00 41.0 --
01/14/2019 05:00 10.62 110.7 0.00 43.6 --
01/14/2019 04:00 10.62 110.7 0.00 51.2 --
01/14/2019 03:00 10.62 110.7 0.00 55.3 --
01/14/2019 02:00 10.62 110.7 0.00 56.7 --
01/14/2019 01:00 10.62 110.7 0.00 58.1 --
01/14/2019 00:00 10.62 110.7 0.00 58.4 0.00
01/13/2019 23:00 10.62 110.7 0.00 62.0 --
01/13/2019 22:00 10.62 110.7 0.00 58.8 --
01/13/2019 21:00 10.62 110.7 0.00 59.6 --
01/13/2019 20:00 10.62 110.7 0.00 61.3 --
01/13/2019 19:00 10.62 110.7 0.00 58.0 --
01/13/2019 18:00 10.62 110.7 0.00 68.9 --
01/13/2019 17:00 10.62 110.7 0.00 67.4 --
01/13/2019 16:00 10.62 110.7 0.00 74.7 --
01/13/2019 15:00 10.62 110.7 0.00 67.7 --
01/13/2019 14:00 10.63 112.6 0.00 80.5 --
01/13/2019 13:00 10.62 110.7 0.00 79.7 --
01/13/2019 12:00 10.62 110.7 0.00 76.0 --
01/13/2019 11:00 10.63 112.6 0.00 71.1 --
01/13/2019 10:00 10.62 110.7 0.00 67.9 --
01/13/2019 09:00 10.62 110.7 0.00 66.1 --
01/13/2019 08:00 10.62 110.7 0.00 66.1 --
01/13/2019 07:00 10.63 112.6 0.00 62.2 --
01/13/2019 06:00 10.62 110.7 0.00 69.5 --
01/13/2019 05:00 10.62 110.7 0.00 63.6 --
01/13/2019 04:00 10.62 110.7 0.00 67.7 --
01/13/2019 03:00 10.62 110.7 0.00 63.9 --
01/13/2019 02:00 10.62 110.7 0.00 63.9 --
01/13/2019 01:00 10.62 110.7 0.00 64.7 --
01/13/2019 00:00 10.62 110.7 0.00 65.7 0.00
01/12/2019 23:00 10.62 110.7 0.00 71.7 --
01/12/2019 22:00 10.62 110.7 0.00 70.5 --
01/12/2019 21:00 10.62 110.7 0.00 67.0 --
01/12/2019 20:00 10.62 110.7 0.00 66.3 --
01/12/2019 19:00 10.62 110.7 0.00 71.0 --
01/12/2019 18:00 10.62 110.7 0.00 67.7 --
01/12/2019 17:00 10.62 110.7 0.00 67.3 --
01/12/2019 16:00 10.63 112.6 0.00 74.2 --
01/12/2019 15:00 10.62 110.7 0.00 71.3 --
01/12/2019 14:00 10.62 110.7 0.00 76.2 --
01/12/2019 13:00 10.62 110.7 0.00 72.4 --
01/12/2019 12:00 10.62 110.7 0.00 65.2 --
01/12/2019 11:00 10.62 110.7 0.00 58.5 --
01/12/2019 10:00 10.63 112.6 0.00 54.3 --
01/12/2019 09:00 10.62 110.7 0.00 52.6 --
01/12/2019 08:00 10.62 110.7 0.00 8.0 --
01/12/2019 07:00 10.62 110.7 0.00 5.7 --
01/12/2019 06:00 10.63 112.6 0.00 5.3 --
01/12/2019 05:00 10.62 110.7 0.00 5.0 --
01/12/2019 04:00 10.63 112.6 0.00 4.6 --
01/12/2019 03:00 10.62 110.7 0.00 105.9 --
01/12/2019 02:00 10.62 110.7 0.00 95.5 --
01/12/2019 01:00 10.62 110.7 0.00 5.5 --
01/12/2019 00:00 10.62 110.7 0.00 4.5 0.00
01/11/2019 23:00 10.62 110.7 0.00 4.8 --
01/11/2019 22:00 10.63 112.6 0.00 4.7 --
01/11/2019 21:00 10.63 112.6 0.00 4.9 --
01/11/2019 20:00 10.62 110.7 0.00 4.8 --
01/11/2019 19:00 10.62 110.7 0.00 5.1 --
01/11/2019 18:00 10.63 112.6 0.00 7.0 --
01/11/2019 17:00 10.63 112.6 0.00 9.5 --
01/11/2019 16:00 10.62 110.7 0.00 12.1 --
01/11/2019 15:00 10.62 110.7 0.00 14.0 --
01/11/2019 14:00 10.62 110.7 0.00 14.5 --
01/11/2019 13:00 10.62 110.7 0.00 13.7 --
01/11/2019 12:00 10.63 112.6 0.00 14.6 --
01/11/2019 11:00 10.62 110.7 0.00 14.7 --
01/11/2019 10:00 10.62 110.7 0.00 14.7 --
01/11/2019 09:00 10.62 110.7 0.00 13.0 --
01/11/2019 08:00 10.62 110.7 0.00 12.1 --
01/11/2019 07:00 10.62 110.7 0.00 12.0 --
01/11/2019 06:00 10.62 110.7 0.00 12.3 --
01/11/2019 05:00 10.62 110.7 0.00 12.5 --
01/11/2019 04:00 10.63 112.6 0.00 13.0 --
01/11/2019 03:00 10.62 110.7 0.00 14.1 --
01/11/2019 02:00 10.62 110.7 0.00 15.4 --
01/11/2019 01:00 10.62 110.7 0.00 16.3 --
01/11/2019 00:00 10.62 110.7 0.00 16.7 0.00
01/10/2019 23:00 10.63 112.6 0.00 17.6 --
01/10/2019 22:00 10.63 112.6 0.00 18.2 --
01/10/2019 21:00 10.63 112.6 0.00 19.0 --
01/10/2019 20:00 10.62 110.7 0.00 19.4 --
01/10/2019 19:00 10.62 110.7 0.00 20.4 --
01/10/2019 18:00 10.62 110.7 0.00 21.2 --
01/10/2019 17:00 10.62 110.7 0.00 22.0 --
01/10/2019 16:00 10.62 110.7 0.00 23.9 --
01/10/2019 15:00 10.63 112.6 0.00 24.7 --
01/10/2019 14:00 10.62 110.7 0.00 25.7 --
01/10/2019 13:00 10.63 112.6 0.00 25.7 --
01/10/2019 12:00 10.62 110.7 0.00 28.0 --
01/10/2019 11:00 10.62 110.7 0.00 29.2 --
01/10/2019 10:00 10.62 110.7 0.00 29.0 --
01/10/2019 09:00 10.62 110.7 0.00 28.3 --
01/10/2019 08:00 10.62 110.7 0.00 28.0 --
01/10/2019 07:00 10.63 112.6 0.00 28.0 --
01/10/2019 06:00 10.63 112.6 0.00 28.0 --
01/10/2019 05:00 10.62 110.7 0.00 28.2 --
01/10/2019 04:00 -- -- -- -- --
01/10/2019 03:00 -- -- -- -- --
01/10/2019 02:00 -- -- -- -- --
01/10/2019 01:00 -- -- -- -- --
01/10/2019 00:00 -- -- -- -- 0.00